This is the latest recevied weather packets stored in our database for station/object N3SBK. If no packets are shown the sender has not sent any weather packets the latest 10 day(s).
| Time | Temp. | Humidity | Pressure | Rain* | Wind** | Luminosity | Snow |
|---|---|---|---|---|---|---|---|
| 1778177682 | 15.56° C | 42% | 1001.7 hPa | 0 mm | - | 749 W/m² | - |
| 1778177379 | 15° C | 45% | 1001.7 hPa | 0 mm | - | 749 W/m² | - |
| 1778177076 | 13.89° C | 47% | 1001.6 hPa | 0 mm | - | 781 W/m² | - |
| 1778176772 | 13.89° C | 43% | 1001.8 hPa | 0 mm | - | 250 W/m² | - |
| 1778176468 | 15° C | 44% | 1002.1 hPa | 0 mm | - | 153 W/m² | - |
| 1778176166 | 15° C | 46% | 1002 hPa | 0 mm | - | 467 W/m² | - |
| 1778175863 | 15° C | 42% | 1002.4 hPa | 0 mm | - | 696 W/m² | - |
| 1778175561 | 15.56° C | 42% | 1002.1 hPa | 0 mm | - | 319 W/m² | - |
| 1778175257 | 15° C | 45% | 1002.1 hPa | 0 mm | - | 243 W/m² | - |
| 1778174954 | 14.44° C | 41% | 1002.1 hPa | 0 mm | - | 881 W/m² | - |
| 1778174651 | 13.89° C | 43% | 1002.1 hPa | 0 mm | - | 832 W/m² | - |
| 1778174347 | 13.89° C | 46% | 1002.2 hPa | 0 mm | - | 861 W/m² | - |
| 1778174043 | 13.89° C | 46% | 1002.5 hPa | 0 mm | - | 465 W/m² | - |
| 1778173741 | 14.44° C | 44% | 1002.2 hPa | 0 mm | - | 177 W/m² | - |
| 1778173437 | 14.44° C | 41% | 1002.4 hPa | 0 mm | - | 827 W/m² | - |
| 1778173133 | 13.89° C | 44% | 1002.7 hPa | 0 mm | - | 813 W/m² | - |
| 1778172829 | 12.78° C | 46% | 1002.6 hPa | 0 mm | - | 757 W/m² | - |
| 1778172525 | 12.78° C | 46% | 1002.7 hPa | 0 mm | - | 639 W/m² | - |
| 1778172222 | 13.33° C | 46% | 1002.9 hPa | 0 mm | - | 177 W/m² | - |
| 1778171920 | 13.89° C | 45% | 1002.9 hPa | 0 mm | - | 204 W/m² | - |
| 1778171617 | 14.44° C | 49% | 1002.9 hPa | 0 mm | - | 259 W/m² | - |
| 1778171313 | 13.89° C | 47% | 1002.8 hPa | 0 mm | - | 780 W/m² | - |
| 1778171009 | 13.33° C | 44% | 1003 hPa | 0 mm | - | 773 W/m² | - |
| 1778170706 | 13.89° C | 46% | 1003.1 hPa | 0 mm | - | 153 W/m² | - |
| 1778170403 | 13.33° C | 46% | 1003 hPa | 0 mm | - | 238 W/m² | - |
* Rain latest hour (hover to see other rain measurements)
** Current wind speed in m/s (hover to see current wind gust speed)